[Iaude] MPEC J149: 2024 JN3 [a=2.16,e=0.59,i=1.2,H=26.9]
    mpec at cfa.harvard.edu 
    mpec at cfa.harvard.edu
       
    Wed May  8 06:57:34 EDT 2024
    
    
  
M.P.E.C. 2024-J149                                  Issued 2024 May 8, 10:55 UT
     The Minor Planet Electronic Circulars contain information on unusual
         minor planets, routine data on comets and natural satellites,
         and occasional editorial announcements.  They are published
    on behalf of Division F of the International Astronomical Union by the
          Minor Planet Center, Smithsonian Astrophysical Observatory,
                          Cambridge, MA 02138, U.S.A.
			  
             Prepared using the Tamkin Foundation Computer Network
                              MPC at CFA.HARVARD.EDU
            URL https://www.minorplanetcenter.net/    ISSN 1523-6714
                                    2024 JN3                                    
Observations:
     K24J03N*KC2024 05 06.84953 13 24 29.69 -01 09 23.2          19.2 GXEJ149L51
     K24J03N KC2024 05 06.85127 13 24 29.06 -01 09 11.2          19.4 GXEJ149L51
     K24J03N KC2024 05 06.85301 13 24 28.43 -01 08 59.3          19.5 GXEJ149L51
     K24J03N KC2024 05 06.93166 13 24 00.14 -00 59 42.8          19.5 GXEJ149L51
     K24J03N KC2024 05 06.93354 13 23 59.44 -00 59 29.5          19.0 GXEJ149L51
     K24J03N KC2024 05 06.93540 13 23 58.79 -00 59 15.2          19.4 GXEJ149L51
     K24J03N mC2024 05 07.13954613 23 33.968-00 31 00.23         19.12GVEJ149I52
     K24J03N mC2024 05 07.13997113 23 33.796-00 30 56.52         19.53GVEJ149I52
     K24J03N mC2024 05 07.14039613 23 33.608-00 30 52.70         19.25GVEJ149I52
     K24J03N mC2024 05 07.14082013 23 33.436-00 30 49.10         19.28GVEJ149I52
     K24J03N KC2024 05 07.15068713 23 18.64 -00 30 12.3          19.3 GVEJ149H21
     K24J03N KC2024 05 07.15261713 23 17.78 -00 29 55.6          19.2 GVEJ149H21
     K24J03N KC2024 05 07.15454613 23 16.93 -00 29 39.0          19.2 GVEJ149H21
     K24J03N KC2024 05 07.15653913 23 16.05 -00 29 21.6          19.3 GVEJ149H21
     K24J03N KC2024 05 07.24539 13 22 50.760-00 16 11.60         18.9 GVEJ149U52
     K24J03N KC2024 05 07.24870 13 22 49.178-00 15 41.65         18.9 GVEJ149U52
     K24J03N KC2024 05 07.25203 13 22 47.714-00 15 08.28         19.9 GVEJ149U52
     K24J03N KC2024 05 07.28943 13 22 22.58 -00 08 00.1          19.4 GVEJ149V21
     K24J03N KC2024 05 07.29732 13 22 18.63 -00 06 43.0          19.6 GVEJ149V21
     K24J03N KB2024 05 07.64259 13 20 12.33 +00 58 53.0          18.7 GVEJ149P13
     K24J03N KB2024 05 07.64625 13 20 09.94 +00 59 43.7          18.9 GVEJ149P13
     K24J03N KB2024 05 07.65079 13 20 07.01 +01 00 45.1          18.7 GVEJ149P13
     K24J03N KB2024 05 07.65394 13 20 04.95 +01 01 28.3          18.7 GVEJ149P13
     K24J03N KB2024 05 07.65955 13 20 01.32 +01 02 46.2          19.1 GVEJ149P13
     K24J03N KB2024 05 07.66294 13 19 59.09 +01 03 33.7          18.9 GVEJ149P13
     K24J03N KB2024 05 07.77432913 19 24.16 +01 30 00.2          19.3 GXEJ149L76
     K24J03N KB2024 05 07.78002313 19 20.23 +01 31 29.8          18.5 GXEJ149L76
     K24J03N KB2024 05 07.78572013 19 16.23 +01 33 00.0          18.4 GXEJ149L76
     K24J03N KC2024 05 07.83361013 18 57.16 +01 58 51.2          18.7 GVEJ149M21
     K24J03N KC2024 05 07.84474313 18 48.22 +02 02 04.3                VEJ149M21
     K24J03N KC2024 05 07.85595313 18 39.05 +02 05 21.4                VEJ149M21
     K24J03N KB2024 05 07.86814913 18 37.34 +01 56 10.9          18.6 GXEJ149I93
     K24J03N KB2024 05 07.87023913 18 35.76 +01 56 47.8          18.7 GXEJ149I93
     K24J03N KB2024 05 07.87232813 18 34.15 +01 57 24.0          18.7 GXEJ149I93
     K24J03N KB2024 05 07.87434713 18 32.62 +01 57 59.9          18.6 GXEJ149I93
     K24J03N KC2024 05 07.88734313 18 22.058+02 00 50.98         18.5 GVEJ149J95
     K24J03N KC2024 05 07.88938113 18 20.491+02 01 27.88         18.6 GVEJ149J95
     K24J03N KC2024 05 07.89072813 18 19.469+02 01 51.92         18.7 GVEJ149J95
     K24J03N KC2024 05 07.89207013 18 18.449+02 02 15.43         18.3 GVEJ149J95
     K24J03N KC2024 05 07.91243313 18 02.033+02 08 25.01         19.0 GVEJ149Z80
     K24J03N KC2024 05 07.92226513 17 54.221+02 11 25.66         18.4 GVEJ149Z80
     K24J03N KB2024 05 07.97745813 17 07.62 +02 30 17.1          18.0 GXEJ149958
     K24J03N KB2024 05 07.98023713 17 05.20 +02 31 12.5          18.2 GXEJ149958
     K24J03N KB2024 05 07.98297413 17 02.80 +02 32 07.4          18.7 GXEJ149958
     K24J03N KB2024 05 08.06072 13 16 45.57 +03 02 24.1          17.7 GXEJ149W42
     K24J03N KB2024 05 08.06654 13 16 40.04 +03 04 35.1          17.5 GXEJ149W42
     K24J03N KB2024 05 08.07236 13 16 34.33 +03 06 46.7          17.6 GXEJ149W42
     K24J03N  C2024 05 08.26734 13 13 12.40 +04 29 18.3          17.4 VtEJ149V27
     K24J03N  C2024 05 08.26867 13 13 10.64 +04 29 59.6          17.5 VtEJ149V27
Observer details:
958 Observatoire de Dax.  Observer P. Dupouy.  0.50-m f/4.5 Reflector + CMO.
H21 Astronomical Research Observatory, Westfield.  Observer R. Holmes.
    Measurers T. Linder, R. Holmes, L. Horn.  0.76-m f/3.0 astrograph + CCD.
I52 Steward Observatory, Mt. Lemmon Station.  Observer H. Groeller.  Measurers
    T. Beuden, V. F. Carvajal, D. Fay, J. B. Fazekas, D. C. Fuls, A. R. Gibbs,
    A. D. Grauer, H. Groeller, J. K. Hogan, R. A. Kowalski, S. M. Larson, G.
    J. Leonard, D. Rankin, R. L. Seaman, F. C. Shelly, K. W. Wierzchos.  1.0-m
    prime focus + CCD.
I93 St Pardon de Conques.  Observer F. Losse.  0.40-m f/3.7 reflector + CMO.
J95 Great Shefford.  Observer P. Birtwhistle.  0.41-m f/6.3 Schmidt-Cassegrain
    + CCD.
L51 MARGO, Nauchnyi.  Observer G. Borisov.  0.50-m f/1.9 reflector + CCD.
L76 Nomad Observatory, Kochevanchik.  Observer E. Romas.  0.25-m f/4 Newtonian
    + CMO.
M21 Schiaparelli Southern Observatory, Hakos.  Observers A. Aletti, F.
    Bellini, L. Buzzi, G. Galli.  Measurer L. Buzzi.  0.36-m f/8.4 reflector +
    CCD.
P13 Baihuashan Observatory, Beijing.  Observers Z. Wang, B. Liu.  Measurer Z.
    Wang.  0.28-m f/2.2 reflector + CMO.
U52 Shasta Valley Observatory, Grenada.  Observers J. E. Rogers, B. Haeusler.
    Measurers J. E. Rogers, D. Parrott.  0.30-m f/5.2 Helin Telescope + CCD.
V21 Cewanee Observatory at DSNM.  Observer D. T. Durig.  0.40 m f/8 Ritchey-
    Chretien + 4656x3520 CCD.
V27 North Mesa Observatory, Los Alamos.  Observer B. K. Kendrick.  0.25-m f/6
    reflector + CCD.
W42 Mind's Eye Observatory, Vero Beach.  Observer J. T. Grage.  0.30-m f/3.3
    SCT + CMO.
Z80 Northolt Branch Observatory.  Observer G. Wells.  0.25-m f/8.0 Ritchey-
    Chretien + CCD.
Orbital elements:
2024 JN3                                                 Earth MOID = 0.0014 AU
Epoch 2024 Mar. 31.0 TT = JDT 2460400.5                 Veres                   
M 336.64158              (2000.0)            P               Q                  
n   0.30969411     Peri.  225.53166     +0.14399768     +0.98943271             
a   2.1636188      Node    52.75504     -0.90176570     +0.13825789             
e   0.5941493      Incl.    1.22066     -0.40753318     +0.04367692             
P   3.18           H   26.92          G   0.15           U   7                  
Residuals in seconds of arc
240506 L51  0.1+  0.2+    240507 V21  0.6+  1.4+    240507 I93  0.4+  0.2+
240506 L51  0.0   0.3+    240507 V21  0.5+  1.1+    240507 J95  0.2+  0.3-
240506 L51  0.1-  0.2+    240507 P13  0.4+  0.1-    240507 J95  0.0   0.3+
240506 L51  0.8+  0.3-    240507 P13  0.1+  0.6+    240507 J95  0.0   0.2+
240506 L51  0.4+  0.8-    240507 P13  0.2+  0.3-    240507 J95  0.1+  0.3-
240506 L51  0.6+  0.1-    240507 P13  0.0   0.4-    240507 Z80  0.3-  0.4+
240507 I52  0.0   0.2-    240507 P13  0.3+  0.1-    240507 Z80  0.4-  0.5-
240507 I52  0.1+  0.2-    240507 P13  0.0   0.3+    240507 958  0.3+  0.1+
240507 I52  0.1-  0.0     240507 L76  0.2-  0.3+    240507 958  0.6+  0.2+
240507 I52  0.0   0.1-    240507 L76  0.4+  0.3+    240507 958  0.8+  0.4+
240507 H21  0.0   0.2+    240507 L76  0.4+  0.3+    240508 W42  1.3-  0.0
240507 H21  0.1-  0.2+    240507 M21  0.2+  0.3-    240508 W42  0.2+  0.2+
240507 H21  0.1-  0.0     240507 M21  0.3+  0.4-    240508 W42  0.2+  0.0
240507 H21  0.0   0.1+    240507 M21  0.5+  0.2-    240508 V27  0.1-  1.1-
240507 U52  0.4+  0.9+    240507 I93  0.0   0.1-    240508 V27  0.9-  0.8+
240507 U52  0.2-  0.3-    240507 I93  0.2+  0.2+
240507 U52  1.2+  1.8+    240507 I93  0.1+  0.2-
Ephemeris:
2024 JN3                 a,e,i = 2.16, 0.59, 1                   q = 0.8781
Date    TT    R. A. (2000) Decl.     Delta      r    Elong.  Phase     V
2024 04 08    13 37 01.1 -06 33 59   0.2537  1.2533   172.7     5.9    24.9
...
2024 04 23    13 34 40.2 -05 43 27   0.1261  1.1299   170.2     8.7    23.3
...
2024 05 01    13 31 58.2 -04 43 19   0.06411 1.0686   161.7    17.2    22.0
...
2024 05 07    13 23 55.2 -00 45 50   0.01905 1.0259   152.1    27.4    19.6
2024 05 08    13 17 04.1 +02 45 51   0.01165 1.0192   147.7    32.0    18.6
2024 05 09    12 46 35.1 +17 51 54   0.0044771.0125   131.1    48.7    17.0
...
2024 05 15    01 38 14.5 +07 59 34   0.04093 0.9752    28.7   150.1    28.4
...
2024 05 23    01 37 19.3 +06 43 41   0.1016  0.9335    37.1   139.1    28.5
...
2024 06 07    01 46 43.7 +07 24 38   0.2196  0.8867    49.1   120.1    28.2
M. P. C. Staff               (C) Copyright 2024 MPC           M.P.E.C. 2024-J149
    
    
More information about the Iaude
mailing list